Home > Weather > Langen > Past weeks

Flag for Germany Weather for the Past 2 Weeks in Langen, Hesse, Germany

Now
68 °F

Passing clouds.


Feels Like: 68 °F
Forecast: 47 / 72 °F
Wind: 13 mph from East

Location: Frankfurt-M-Flughafen Airport

Current Time: May 5, 2016 at 8:14:52 PM

Latest Report: May 5, 2016 at 7:20 PM


Visibility: N/A

Pressure: 30.09 "Hg

Humidity: 38%

Dew Point: 41 °F

Location of LangenLocation

Historic Weather in Langen — Graph

°F

Langen Temperature Yesterday

Maximum temperature yesterday: 61 °F (at 4:50 PM)
Minimum temperature yesterday: 32 °F (at 5:50 AM)
Average temperature yesterday: 50 °F

High & Low Weather Summary for the Past Weeks

 TemperatureHumidityPressure
High70 °F (Apr 21, 4:50 PM)93% (Apr 24, 2:50 AM)30.39 "Hg (Apr 24, 2:50 AM)
Low30 °F (Apr 24, 4:50 AM)23% (May 4, 5:50 PM)29.56 "Hg (Apr 26, 12:20 AM)
Average48 °F61%30.02 "Hg
* Reported Apr 20 7:20 PM — May 5 7:20 PM, Langen, Weather by CustomWeather, © 2016

Note: Actual official high and low records may vary slightly from our data, if they occured in-between our weather recording intervals... More about our weather records

Advertising

Langen Weather History for the Previous 24 Hours

Scroll right to see more
 ConditionsComfort  
Time TempWeatherWind HumidityBarometerVisibility
7:20 PM
Thu, May 5
68 °FPassing clouds.13 mph38%30.09 "HgN/A
6:50 PM68 °FSunny.15 mph38%30.12 "Hg10 mi
6:20 PM68 °FPassing clouds.15 mph35%30.12 "HgN/A
5:50 PM68 °FSunny.15 mph38%30.12 "Hg10 mi
5:20 PM68 °FPassing clouds.16 mph38%30.12 "HgN/A
4:50 PM68 °FPassing clouds.15 mph38%30.15 "HgN/A
4:20 PM68 °FPassing clouds.14 mph38%30.15 "HgN/A
3:50 PM66 °FPassing clouds.14 mph40%30.15 "HgN/A
3:20 PM68 °FSunny.15 mph38%30.18 "Hg10 mi
2:50 PM64 °FPassing clouds.16 mph40%30.18 "HgN/A
2:20 PM64 °FPassing clouds.14 mph40%30.21 "HgN/A
1:50 PM64 °FPassing clouds.15 mph40%30.21 "HgN/A
1:20 PM64 °FPassing clouds.16 mph43%30.21 "HgN/A
12:50 PM63 °FPassing clouds.14 mph42%30.24 "HgN/A
12:20 PM61 °FPassing clouds.14 mph45%30.24 "HgN/A
11:50 AM59 °FPassing clouds.15 mph51%30.27 "HgN/A
11:20 AM57 °FPassing clouds.13 mph51%30.27 "HgN/A
10:50 AM55 °FPassing clouds.12 mph51%30.30 "HgN/A
10:20 AM55 °FPassing clouds.12 mph51%30.30 "HgN/A
9:50 AM54 °FPassing clouds.12 mph54%30.30 "HgN/A
9:20 AM52 °FPassing clouds.10 mph54%30.33 "HgN/A
8:50 AM50 °FSunny.10 mph58%30.33 "Hg10 mi
8:20 AM48 °FPassing clouds.6 mph58%30.33 "HgN/A
7:50 AM46 °FSunny.7 mph57%30.33 "Hg10 mi
7:20 AM45 °FSunny.7 mph61%30.33 "Hg10 mi
6:50 AM43 °FClear.5 mph66%30.33 "Hg10 mi
6:20 AM39 °FClear.5 mph70%30.33 "Hg10 mi
5:50 AM39 °FClear.7 mph75%30.33 "Hg10 mi
5:20 AM39 °FClear.6 mph75%30.33 "Hg10 mi
4:50 AM43 °FClear.6 mph61%30.33 "Hg10 mi
4:20 AM45 °FClear.9 mph57%30.33 "Hg10 mi
3:50 AM45 °FClear.8 mph57%30.33 "Hg10 mi
3:20 AM45 °FPassing clouds.3 mph61%30.33 "HgN/A
2:50 AM41 °FPassing clouds.3 mph70%30.33 "HgN/A
2:20 AM43 °FPassing clouds.7 mph66%30.33 "HgN/A
1:50 AM43 °FClear.6 mph66%30.33 "Hg10 mi
1:20 AM45 °FPassing clouds.5 mph61%30.33 "HgN/A
12:50 AM48 °FPassing clouds.5 mph50%30.33 "HgN/A
12:20 AM48 °FClear.7 mph50%30.33 "Hg10 mi
11:50 PM
Wed, May 4
50 °FClear.7 mph47%30.33 "Hg10 mi
11:20 PM52 °FClear.7 mph41%30.33 "Hg10 mi
10:50 PM52 °FClear.8 mph38%30.33 "Hg10 mi
10:20 PM54 °FClear.10 mph35%30.33 "Hg10 mi
9:50 PM54 °FClear.10 mph35%30.33 "Hg10 mi
9:20 PM55 °FSunny.10 mph31%30.33 "Hg10 mi
8:50 PM57 °FSunny.8 mph29%30.33 "Hg10 mi
8:20 PM57 °FSunny.10 mph27%30.33 "Hg10 mi
Weather by CustomWeather, © 2016

See weather overviewHow to use our weather pages